Altus, OK

11:55 PM CDT on July 20, 2017 (GMT -0500)
Altus Municipal

Weather History for KAXS - June, 2013

Change the Weather History Date:

Thursday, June 13, 2013

  Actual Average (KLTS) Record (KLTS)
Temperature  
Mean Temperature 86 °F -  
Max Temperature 102 °F 88 °F 109 °F (1998)
Min Temperature 73 °F 65 °F 62 °F (2014)
Cooling Degree Days 22    
Growing Degree Days 36 (Base 50)    
Moisture  
Dew Point 62 °F    
Average Humidity 46    
Maximum Humidity 72    
Minimum Humidity 24    
Precipitation  
Precipitation 0.00 in - - ()
Sea Level Pressure  
Sea Level Pressure 30.01 in    
Wind  
Wind Speed 8 mph (South)    
Max Wind Speed 17 mph    
Max Gust Speed 22 mph    
Visibility 10 miles    
Events      
Averages and records for this station are not official NWS values.
T = Trace of Precipitation, MM = Missing Value Source: NWS Daily Summary

Daily Weather History Graph

Daily Weather History Graph

Search for Another Location

Airport or City:

Trip Planner

Search our weather history database for the weather conditions in past years. The results will help you decide how hot, cold, wet, or windy it might be!

Date:

Astronomy

Jun. 13, 2013 Rise Set
Actual Time 6:23 AM CDT 8:51 PM CDT
Civil Twilight 5:54 AM CDT 9:20 PM CDT
Nautical Twilight 5:17 AM CDT 9:57 PM CDT
Astronomical Twilight 4:37 AM CDT 10:37 PM CDT
Moon 10:52 AM CDT (6/13) No Moon Set
Length of Visible Light 15h 26m
Length of Day
14h 27m
Waxing Crescent, 22% of the Moon is Illuminated
Jun 13
Waxing Crescent
Jun 16
First Quarter
Jun 23
Full
Jun 29
Last Quarter
Jul 8
New

Hourly Weather History & Observations

Time (CDT) Temp. Heat Index Dew Point Humidity Pressure Visibility Wind Dir Wind Speed Gust Speed Precip Events Conditions
12:15 AM 84.7 °F 84.6 °F 59.9 °F 43% 29.99 in 10.0 mi SSE 6.9 mph - N/A   Clear
12:35 AM 82.8 °F 83.1 °F 60.8 °F 47% 29.99 in 10.0 mi South 6.9 mph - N/A   Clear
12:55 AM 82.8 °F 83.1 °F 60.8 °F 47% 29.99 in 10.0 mi SSE 5.8 mph - N/A   Clear
1:15 AM 80.4 °F 81.4 °F 61.3 °F 52% 29.99 in 10.0 mi South 9.2 mph - N/A   Clear
1:35 AM 79.7 °F - 61.9 °F 54% 29.99 in 10.0 mi South 9.2 mph - N/A   Clear
1:55 AM 82.2 °F 83.2 °F 62.2 °F 51% 29.99 in 10.0 mi South 10.4 mph - N/A   Clear
2:15 AM 81.9 °F 82.8 °F 62.2 °F 51% 29.99 in 10.0 mi South 8.1 mph - N/A   Clear
2:35 AM 82.0 °F 83.1 °F 62.6 °F 52% 30.00 in 10.0 mi South 9.2 mph - N/A   Clear
2:55 AM 82.0 °F 83.1 °F 62.6 °F 52% 30.00 in 10.0 mi South 9.2 mph - N/A   Clear
3:15 AM 81.9 °F 82.9 °F 62.6 °F 52% 29.99 in 10.0 mi South 8.1 mph - N/A   Clear
3:35 AM 80.6 °F 81.8 °F 62.8 °F 54% 29.99 in 10.0 mi SSE 6.9 mph - N/A   Clear
3:55 AM 76.3 °F - 63.1 °F 64% 29.99 in 10.0 mi SE 5.8 mph - N/A   Clear
4:15 AM 75.2 °F - 63.1 °F 66% 30.00 in 10.0 mi SE 4.6 mph - N/A   Clear
4:35 AM 74.5 °F - 63.5 °F 68% 30.00 in 10.0 mi SE 4.6 mph - N/A   Clear
4:55 AM 75.4 °F - 63.7 °F 67% 30.00 in 10.0 mi SE 5.8 mph - N/A   Clear
5:15 AM 75.2 °F - 63.7 °F 67% 30.00 in 10.0 mi SE 5.8 mph - N/A   Clear
5:35 AM 74.3 °F - 63.7 °F 69% 30.01 in 10.0 mi SE 5.8 mph - N/A   Clear
5:55 AM 73.4 °F - 63.9 °F 72% 30.02 in 10.0 mi SE 5.8 mph - N/A   Clear
6:15 AM 73.6 °F - 64.0 °F 72% 30.03 in 10.0 mi ESE 5.8 mph - N/A   Clear
6:35 AM 73.8 °F - 64.0 °F 72% 30.03 in 10.0 mi SE 4.6 mph - N/A   Clear
6:55 AM 74.3 °F - 64.2 °F 71% 30.04 in 10.0 mi Calm Calm - N/A   Clear
7:15 AM 77.2 °F - 64.4 °F 65% 30.04 in 10.0 mi South 6.9 mph - N/A   Clear
7:35 AM 78.3 °F - 64.4 °F 62% 30.05 in 10.0 mi South 5.8 mph - N/A   Clear
7:55 AM 79.0 °F - 64.4 °F 61% 30.05 in 10.0 mi SSW 8.1 mph - N/A   Clear
8:15 AM 80.2 °F 82.0 °F 64.8 °F 59% 30.06 in 10.0 mi SW 6.9 mph - N/A   Clear
8:35 AM 81.5 °F 83.3 °F 65.1 °F 57% 30.06 in 10.0 mi SW 8.1 mph - N/A   Clear
8:55 AM 84.4 °F 86.1 °F 64.9 °F 52% 30.06 in 10.0 mi SW 11.5 mph - N/A   Clear
9:15 AM 85.6 °F 87.1 °F 64.4 °F 49% 30.06 in 10.0 mi WSW 10.4 mph - N/A   Clear
9:35 AM 87.4 °F 88.8 °F 64.2 °F 46% 30.07 in 10.0 mi WSW 10.4 mph 16.1 mph N/A   Clear
9:55 AM 88.5 °F 89.8 °F 64.2 °F 44% 30.07 in 10.0 mi West 11.5 mph - N/A   Clear
10:15 AM 89.8 °F 91.0 °F 63.9 °F 42% 30.07 in 10.0 mi WSW 9.2 mph - N/A   Clear
10:35 AM 91.0 °F 92.2 °F 63.3 °F 40% 30.07 in 10.0 mi SW 10.4 mph - N/A   Clear
10:55 AM 91.9 °F 92.5 °F 62.6 °F 37% 30.06 in 10.0 mi WSW 8.1 mph 16.1 mph N/A   Clear
11:15 AM 92.7 °F 93.2 °F 61.7 °F 36% 30.06 in 10.0 mi West 9.2 mph - N/A   Clear
11:35 AM 93.4 °F 93.9 °F 61.9 °F 35% 30.06 in 10.0 mi Calm Calm - N/A   Clear
11:55 AM 95.0 °F 95.2 °F 61.2 °F 32% 30.06 in 10.0 mi SSE 3.5 mph - N/A   Clear
12:15 PM 95.7 °F 95.9 °F 61.0 °F 31% 30.05 in 10.0 mi Calm Calm - N/A   Clear
12:35 PM 95.2 °F 95.1 °F 59.9 °F 31% 30.05 in 10.0 mi SW 8.1 mph - N/A   Clear
12:55 PM 97.2 °F 97.2 °F 60.3 °F 29% 30.04 in 10.0 mi South 9.2 mph - N/A   Clear
1:15 PM 96.6 °F 96.8 °F 60.4 °F 30% 30.04 in 10.0 mi SSE 13.8 mph 18.4 mph N/A   Clear
1:35 PM 98.1 °F 98.1 °F 59.7 °F 28% 30.04 in 10.0 mi South 12.7 mph 18.4 mph N/A   Clear
1:55 PM 98.1 °F 98.1 °F 59.4 °F 28% 30.03 in 10.0 mi South 6.9 mph 20.7 mph N/A   Clear
2:15 PM 99.1 °F 98.8 °F 59.0 °F 26% 30.02 in 10.0 mi South 15.0 mph 19.6 mph N/A   Clear
2:35 PM 99.3 °F 98.6 °F 57.6 °F 25% 30.01 in 10.0 mi South 13.8 mph 19.6 mph N/A   Clear
2:55 PM 99.9 °F 99.9 °F 59.0 °F 26% 30.00 in 10.0 mi SSW 9.2 mph 19.6 mph N/A   Clear
3:15 PM 99.5 °F 99.9 °F 59.5 °F 27% 29.99 in 10.0 mi SSW 17.3 mph 21.9 mph N/A   Clear
3:35 PM 100.4 °F 99.7 °F 57.7 °F 24% 29.98 in 10.0 mi SSW 11.5 mph 18.4 mph N/A   Clear
8:15 PM 97.0 °F 95.7 °F 57.2 °F 26% 29.92 in 10.0 mi SSE 10.4 mph - N/A   Clear
8:35 PM 95.7 °F 94.7 °F 58.1 °F 28% 29.92 in 10.0 mi SSE 12.7 mph - N/A   Clear
8:55 PM 94.3 °F 93.4 °F 58.3 °F 30% 29.92 in 10.0 mi SSE 10.4 mph - N/A   Clear
9:15 PM 93.2 °F 91.9 °F 57.7 °F 30% 29.93 in 10.0 mi SSE 9.2 mph - N/A   Clear
9:35 PM 91.8 °F 90.6 °F 58.1 °F 32% 29.93 in 10.0 mi SSE 9.2 mph - N/A   Clear
9:55 PM 90.0 °F 88.8 °F 58.5 °F 34% 29.94 in 10.0 mi SSE 9.2 mph - N/A   Clear
10:15 PM 88.3 °F 87.6 °F 59.2 °F 37% 29.95 in 10.0 mi SE 8.1 mph - N/A   Clear
10:35 PM 87.1 °F 86.7 °F 60.1 °F 40% 29.96 in 10.0 mi SE 10.4 mph - N/A   Clear
10:55 PM 87.4 °F 87.7 °F 61.7 °F 42% 29.97 in 10.0 mi SE 12.7 mph - N/A   Clear
11:15 PM 86.9 °F 88.3 °F 64.4 °F 47% 29.97 in 10.0 mi SE 16.1 mph - N/A   Clear
11:35 PM 86.0 °F 87.9 °F 65.3 °F 50% 29.98 in 10.0 mi SE 12.7 mph - N/A   Clear
11:55 PM 85.3 °F 87.4 °F 65.7 °F 52% 29.98 in 10.0 mi SE 11.5 mph - N/A   Clear